Vertical_Velocity
-1 0 -0 0 -2 0 -1 -0 -3 1 1 -6 7 1 -1 -1 1 -0 -2 -2 3 -4 -3 0 2 -1 0 -2 -10 4 2 3 -1 2 1 3 4 1 -1 -1 2 5 -0 -1 1 2 7
-2 2 -2 -2 -0 -2 1 -3 -0 -0 4 -3 2 -1 -1 -0 -1 -1 -0 -2 3 -2 -3 -0 1 1 -0 5 -2 -0 5 1 4 -3 -5 -1 2 2 4 -0 5 -1 -1 1 -0 3 -1
1 -1 1 -1 -1 -2 2 -0 0 -4 4 -1 2 0 -1 1 -1 -1 0 -1 -0 -2 -2 -0 2 -1 -1 -14 2 1 3 5 2 4 3 3 2 3 2 3 -0 -1 -3 2 3 2 1
3 -2 -1 -1 0 -1 2 -1 0 3 0 5 0 1 -1 3 -2 -2 -0 2 1 -3 -0 2 1 1 -11 1 0 -1 3 1 2 3 5 2 3 5 5 -1 3 1 1 -1 6 1 0
-1 2 4 -0 -1 2 -1 -1 -3 -1 -1 5 2 3 -1 4 -0 -4 -0 2 -1 -3 0 0 1 0 -6 1 -0 1 5 7 2 2 -0 2 -4 0 -1 2 6 3 -0 0 5 -0 -0
2 3 -2 -1 -0 -3 1 1 0 -2 1 1 3 3 -0 0 1 -3 1 4 -4 0 1 1 0 0 -3 8 -1 6 5 4 5 2 -4 2 3 2 3 6 -4 -2 1 4 -2 5 2
-5 -1 2 0 -2 0 -2 -2 5 -3 -3 0 -1 2 1 0 1 -0 2 1 -5 -2 1 -3 5 0 -2 5 -2 0 3 1 5 3 2 1 5 -2 -5 -1 1 -2 -2 -2 4 3 -4
2 -0 -0 0 -2 -0 -0 -1 4 0 -1 -3 1 1 6 3 -3 2 -2 -6 6 -4 5 -3 -1 -4 -2 1 3 1 -1 7 2 1 2 7 1 1 -1 -0 -2 0 -1 3 4 1 1
-4 -1 -1 -3 3 5 -0 2 -1 1 1 -3 1 -1 7 -4 -2 -1 3 -6 5 2 5 1 -2 -1 3 -0 0 5 -4 -0 1 1 0 -3 5 -0 -2 2 -1 1 -1 0 -6 2 1
-2 -2 -3 3 2 1 -1 2 -2 3 4 -4 -0 8 -4 2 3 -3 -6 6 4 1 6 7 2 2 1 1 3 -2 -2 1 2 -0 -0 1 2 -1 0 -0 2 1 -0 -2 -0 4 1
-1 1 -2 2 -2 1 4 3 -3 2 2 -3 1 -1 3 4 -1 -3 2 4 4 1 6 6 5 -0 -1 3 2 4 -3 -1 -1 -0 9 8 1 1 -0 3 0 3 -3 -3 -1 1 4
-5 -4 2 -3 7 -2 -1 5 -2 5 2 -0 -4 3 3 0 2 8 2 5 3 14 -0 5 1 2 5 0 0 0 2 -2 -2 -2 0 1 -1 0 1 2 -0 -1 1 1 1 1 5
4 -1 -4 -3 3 5 6 -6 4 4 2 0 6 -2 -3 5 -2 5 2 8 9 4 5 4 -2 1 -1 1 3 1 1 3 -0 2 2 4 2 2 -1 -3 4 5 6 3 6 7 -5
-0 2 -2 2 -0 2 5 1 3 3 1 2 4 1 -0 -1 3 10 -4 10 6 -2 -3 2 0 3 -0 0 2 1 2 2 2 1 0 -2 13 2 2 1 -5 -3 3 -0 -1 -1 -2
4 -6 1 -0 4 2 6 6 0 1 4 3 4 0 -4 -2 5 9 4 4 -9 -2 -4 -0 7 5 3 2 2 1 -0 -1 -0 1 2 0 4 3 -1 0 5 3 4 4 0 1 4
0 -2 5 0 3 -3 3 14 4 1 -3 5 -2 -0 -1 10 4 8 9 -4 1 -1 0 3 -2 1 -1 0 4 4 1 1 1 0 1 1 2 0 3 3 3 7 2 8 2 1 -0
6 -8 0 3 4 -0 3 13 10 -1 -1 9 2 2 2 2 10 8 -1 -4 -0 -1 -0 -0 -2 0 -3 -3 -1 -1 -3 5 1 2 -0 -1 0 7 4 2 -2 4 3 1 2 2 2
4 -3 -9 1 2 -6 6 11 7 1 8 14 1 7 2 6 8 -0 -0 -3 -2 1 -1 1 2 -1 -3 -0 0 1 -3 0 -1 -1 0 1 -1 -0 -5 2 1 1 -0 -2 3 2 1
5 -5 -1 0 4 10 9 11 7 4 -4 -15 -2 3 7 7 -0 1 2 1 -1 1 -0 2 0 -1 0 -1 2 -1 -0 1 -1 1 -1 -1 1 2 9 11 5 2 0 -0 -0 0 -2
-4 -6 4 3 -5 21 8 11 2 0 -2 -0 5 5 10 3 3 -6 -0 -1 2 0 0 -0 -1 -1 0 1 1 -0 2 2 0 0 -1 1 0 1 -5 0 -1 2 2 0 -0 1 -2
-5 3 -3 14 -1 -17 7 10 -4 2 8 4 -1 -3 -15 0 7 1 3 -2 1 1 0 -0 3 -1 -3 -0 1 0 1 3 2 -1 1 2 1 1 0 0 0 -0 -1 0 2 -6 2
2 2 -3 -6 11 -2 9 -1 5 11 15 -0 3 -1 3 0 3 3 1 -1 -3 3 -1 2 2 0 -0 -1 -5 -3 -3 -0 -4 5 0 1 2 0 0 0 0 0 -0 0 -0 -1 1
2 -6 3 -8 -40 5 5 4 -1 14 6 -13 -1 4 -5 1 2 4 -5 -3 -5 -2 1 0 -2 -3 1 3 1 4 -1 -0 -1 -3 -0 -0 -2 1 -0 0 0 -1 -8 -2 -1 0 -0
2 -5 -9 -23 8 6 7 3 5 1 7 -13 -6 -1 -0 2 0 -7 -0 -1 -1 -2 -4 1 -0 -2 3 -3 -3 -4 -4 -2 -2 2 -1 -1 -1 -0 0 1 0 1 0 1 0 -3 -0
1 14 -19 18 -1 -1 7 1 3 -3 6 1 -3 3 -3 0 -5 5 4 -2 1 1 -1 -1 1 2 -2 0 -1 0 -0 -1 1 1 -0 -0 -1 -0 -0 -0 -3 -3 1 0 -0 -6 0
-2 -30 8 10 -0 8 4 0 -4 4 -1 3 -5 4 -1 -13 -6 -6 -2 -5 -3 0 2 2 0 3 -0 -1 -1 -1 -1 -1 3 4 0 -1 -1 2 1 1 -1 3 2 -1 1 -1 1
11 14 7 -3 10 5 -3 -2 3 2 -3 6 -6 2 -2 -0 -0 -6 -6 -11 0 1 -2 0 1 -0 -2 -0 -1 -0 1 1 1 -1 -0 0 -0 -1 0 -0 -5 0 -0 -1 6 8 -0
7 -15 -7 17 -1 -5 -2 4 2 -1 1 2 -2 4 1 0 1 1 2 -5 -1 2 -4 6 2 2 1 0 -0 -0 -0 -0 1 -0 -2 -2 -2 -1 0 1 -2 -2 3 4 5 -1 0
-7 4 -4 -4 -4 -1 3 1 1 0 -5 5 4 2 -0 -4 2 -2 -0 0 -1 10 -5 4 2 -2 -2 -2 0 -1 0 -0 0 0 2 2 -1 1 -0 -0 0 -4 -0 2 -1 -1 -1
Height
1522 1523 1524 1525 1525 1524 1524 1525 1525 1526 1526 1527 1526 1525 1525 1523 1521 1519 1517 1516 1514 1514 1513 1512 1512 1512 1512 1512 1507 1504 1503 1504 1505 1507 1510 1512 1512 1512 1509 1509 1511 1510 1507 1510 1513 1511 1510
1514 1516 1518 1520 1520 1521 1520 1520 1521 1523 1523 1523 1523 1522 1522 1519 1518 1516 1514 1513 1512 1511 1511 1511 1511 1511 1512 1511 1504 1504 1504 1504 1505 1507 1509 1511 1511 1511 1507 1507 1506 1506 1508 1510 1511 1512 1515
1507 1509 1511 1514 1515 1517 1517 1516 1517 1519 1519 1520 1519 1519 1519 1515 1515 1513 1512 1510 1510 1509 1510 1511 1511 1510 1510 1506 1503 1503 1502 1502 1503 1505 1508 1509 1510 1511 1509 1508 1508 1508 1506 1508 1511 1512 1516
1499 1502 1504 1507 1510 1511 1512 1513 1514 1514 1517 1516 1516 1516 1516 1512 1512 1511 1510 1509 1508 1509 1509 1510 1511 1509 1505 1502 1501 1501 1500 1500 1501 1502 1507 1507 1507 1509 1509 1508 1508 1506 1503 1507 1515 1512 1517
1490 1494 1497 1500 1504 1506 1507 1509 1510 1511 1512 1514 1513 1513 1513 1510 1508 1508 1508 1508 1508 1508 1509 1510 1511 1510 1504 1501 1500 1500 1500 1500 1499 1500 1502 1504 1507 1508 1507 1503 1505 1506 1508 1509 1515 1516 1515
1479 1485 1489 1493 1497 1500 1503 1503 1505 1507 1508 1511 1511 1510 1510 1508 1507 1506 1508 1507 1508 1508 1509 1509 1509 1511 1502 1501 1500 1499 1499 1499 1500 1500 1503 1506 1505 1502 1501 1500 1509 1507 1508 1506 1511 1518 1513
1470 1476 1480 1485 1488 1493 1497 1498 1500 1502 1505 1507 1508 1507 1506 1505 1506 1505 1508 1507 1512 1512 1507 1503 1504 1501 1499 1499 1499 1499 1499 1499 1500 1501 1497 1502 1500 1500 1495 1497 1496 1497 1501 1507 1513 1520 1519
1461 1465 1472 1477 1482 1485 1491 1493 1495 1496 1501 1503 1504 1504 1503 1503 1504 1504 1506 1504 1505 1505 1502 1500 1501 1500 1498 1498 1498 1498 1499 1499 1497 1495 1498 1500 1501 1502 1502 1501 1499 1500 1505 1512 1520 1522 1518
1451 1456 1462 1469 1474 1478 1483 1487 1490 1492 1496 1499 1500 1501 1500 1500 1504 1504 1504 1502 1503 1503 1502 1499 1499 1498 1498 1498 1497 1497 1499 1498 1496 1494 1496 1491 1503 1503 1500 1500 1502 1505 1504 1512 1511 1521 1519
1442 1447 1453 1459 1465 1471 1476 1481 1484 1486 1490 1495 1497 1498 1497 1499 1505 1502 1502 1503 1502 1503 1497 1497 1496 1496 1496 1497 1497 1497 1497 1500 1499 1498 1497 1500 1504 1502 1500 1504 1507 1506 1510 1511 1516 1516 1517
1431 1437 1443 1449 1455 1462 1468 1474 1478 1481 1485 1490 1492 1494 1495 1497 1498 1501 1501 1501 1501 1503 1513 1493 1493 1494 1494 1496 1496 1497 1497 1499 1496 1500 1503 1506 1503 1504 1502 1507 1509 1511 1509 1511 1513 1511 1515
1423 1427 1434 1440 1446 1453 1459 1467 1472 1476 1480 1485 1488 1490 1491 1494 1495 1499 1498 1498 1501 1503 1507 1491 1490 1491 1493 1495 1496 1496 1497 1498 1501 1500 1499 1503 1507 1505 1507 1511 1509 1515 1512 1513 1513 1513 1522
1410 1417 1424 1431 1438 1443 1451 1459 1465 1471 1475 1480 1483 1487 1487 1490 1494 1495 1495 1498 1499 1501 1492 1490 1488 1488 1488 1493 1495 1495 1494 1496 1495 1504 1504 1504 1507 1509 1509 1510 1514 1512 1509 1520 1524 1524 1524
1400 1407 1413 1421 1428 1436 1442 1450 1459 1465 1470 1474 1480 1484 1483 1486 1491 1492 1494 1495 1498 1487 1486 1487 1486 1488 1489 1491 1495 1496 1495 1496 1499 1496 1500 1502 1516 1508 1509 1506 1507 1508 1507 1516 1534 1531 1514
1389 1397 1403 1411 1418 1427 1433 1443 1451 1458 1465 1469 1474 1479 1478 1482 1488 1491 1494 1492 1486 1483 1481 1484 1487 1488 1491 1491 1491 1493 1494 1494 1498 1497 1496 1503 1509 1509 1510 1510 1510 1513 1515 1513 1524 1535 1526
1379 1387 1394 1402 1409 1417 1424 1435 1444 1452 1458 1466 1468 1476 1474 1479 1485 1490 1490 1484 1480 1482 1483 1482 1485 1483 1489 1489 1491 1491 1493 1497 1498 1499 1499 1500 1511 1509 1511 1511 1513 1508 1512 1518 1518 1533 1530
1370 1379 1386 1392 1399 1408 1415 1427 1436 1444 1454 1463 1466 1475 1469 1475 1482 1486 1480 1478 1480 1481 1482 1482 1480 1485 1482 1488 1487 1489 1491 1497 1498 1499 1499 1497 1499 1512 1510 1507 1503 1513 1511 1518 1513 1522 1519
1362 1370 1377 1384 1391 1400 1407 1419 1429 1437 1449 1458 1463 1464 1464 1471 1479 1474 1473 1475 1478 1478 1480 1480 1480 1480 1481 1484 1486 1488 1490 1491 1497 1497 1497 1500 1500 1510 1505 1509 1509 1506 1505 1507 1514 1522 1527
1353 1361 1369 1376 1383 1391 1398 1412 1421 1429 1437 1447 1455 1457 1463 1466 1467 1471 1475 1473 1476 1475 1476 1478 1477 1478 1482 1483 1489 1488 1490 1498 1498 1498 1497 1500 1501 1511 1511 1511 1510 1507 1507 1509 1514 1518 1522
1345 1353 1360 1368 1375 1381 1390 1404 1413 1424 1434 1448 1451 1452 1459 1465 1462 1463 1468 1470 1473 1475 1475 1476 1477 1479 1481 1484 1487 1490 1492 1498 1499 1500 1500 1500 1499 1498 1502 1497 1498 1506 1505 1506 1504 1515 1508
1339 1346 1352 1357 1368 1376 1384 1397 1409 1421 1430 1439 1441 1437 1442 1452 1458 1459 1464 1466 1469 1471 1474 1475 1475 1474 1476 1485 1487 1489 1491 1496 1499 1500 1501 1499 1499 1502 1505 1507 1506 1502 1500 1503 1504 1501 1508
1332 1339 1345 1351 1352 1364 1379 1394 1405 1416 1425 1433 1434 1436 1441 1446 1455 1459 1463 1464 1465 1469 1470 1470 1470 1474 1476 1480 1477 1483 1485 1489 1488 1499 1498 1501 1502 1507 1509 1509 1508 1507 1500 1498 1499 1497 1499
1328 1334 1339 1348 1354 1363 1377 1388 1400 1410 1416 1425 1431 1433 1438 1451 1452 1455 1460 1461 1463 1466 1473 1472 1470 1473 1477 1480 1482 1482 1487 1488 1489 1492 1497 1500 1507 1508 1505 1515 1513 1517 1498 1493 1492 1490 1493
1323 1328 1332 1341 1350 1359 1373 1384 1395 1404 1415 1425 1430 1432 1436 1448 1451 1453 1458 1461 1463 1464 1467 1473 1473 1473 1483 1483 1486 1488 1491 1493 1495 1498 1499 1506 1506 1512 1511 1523 1518 1485 1493 1492 1489 1488 1486
1319 1322 1327 1333 1345 1359 1371 1381 1392 1403 1414 1423 1427 1431 1434 1448 1449 1453 1457 1460 1465 1467 1469 1472 1476 1478 1481 1484 1486 1491 1495 1498 1501 1502 1502 1503 1504 1516 1514 1505 1492 1482 1490 1492 1491 1483 1483
1312 1319 1328 1337 1351 1361 1370 1380 1390 1401 1412 1421 1425 1430 1434 1441 1448 1450 1455 1460 1462 1464 1471 1476 1478 1481 1483 1485 1487 1491 1491 1489 1497 1500 1506 1506 1506 1501 1517 1507 1505 1486 1491 1493 1493 1488 1485
1312 1322 1332 1341 1351 1361 1370 1379 1389 1398 1410 1419 1425 1430 1435 1440 1442 1447 1450 1455 1459 1462 1465 1475 1480 1483 1483 1485 1489 1488 1487 1492 1491 1499 1510 1507 1510 1508 1509 1507 1493 1488 1493 1494 1496 1492 1487
1316 1325 1334 1342 1351 1360 1369 1377 1387 1397 1409 1418 1424 1429 1434 1437 1441 1443 1446 1449 1454 1457 1459 1473 1478 1480 1483 1485 1485 1487 1491 1491 1490 1491 1497 1496 1501 1508 1514 1509 1504 1490 1493 1494 1488 1487 1487
1321 1327 1336 1345 1353 1360 1369 1377 1386 1396 1408 1416 1423 1428 1432 1436 1440 1441 1444 1446 1449 1453 1456 1465 1464 1467 1471 1477 1486 1490 1497 1501 1494 1489 1495 1495 1491 1490 1493 1486 1487 1488 1487 1488 1487 1487 1486